[[{"header":{"parameterUnit":"m.s-1","parameterCategory":1,"la1":30.2991,"la2":30.254,"lo1":-89.0895,"lo2":-89.0444,"dy":0.0017,"dx":0.0017,"nx":28,"ny":28,"refTime":"2023-11-02T03:00:00:Z","depth":0,"parameterNumber":2,"parameterNumberName":"U-component_of_WINDS"},"data":[0,0,0,0,0,0,0,0,0,0,0,0,0,0,0,0,0,0,0,0,0,0,0,0,0,0,0,0,0,0,0,0,0,0,0,0,0,0,0,0,0,0,0,0,0,0,0,0,0,0,0,0,0,0,0,0,0,0,-3.253,-3.253,0,-3.2546,-3.2546,-3.2547,-3.2484,-3.2482,-3.248,-3.2479,-3.2495,-3.2497,-3.2499,0,0,0,0,0,0,0,0,0,0,0,0,0,-3.2443,-3.2445,-3.253,-3.253,-3.253,-3.2546,-3.2546,-3.2547,-3.2484,-3.2482,-3.248,-3.2478,-3.2495,-3.2497,-3.25,0,0,0,0,0,0,0,0,0,0,0,0,0,-3.2473,-3.2446,-3.253,-3.2501,-3.2499,-3.2546,-3.2546,-3.2547,-3.2485,-3.2482,-3.2479,-3.2477,-3.2494,-3.2497,-3.25,-3.2576,0,0,-3.251,-3.2511,0,0,0,0,0,0,0,0,-3.2471,-3.2476,-3.2505,-3.2503,-3.25,-3.251,-3.2522,-3.2556,-3.2486,-3.249,-3.2479,-3.2475,-3.2502,-3.2505,-3.2514,-3.2577,-3.2577,-3.251,-3.2512,-3.2514,-3.2515,0,0,0,0,0,0,0,-3.2469,-3.2475,-3.2536,-3.2505,-3.2503,-3.2487,-3.2488,-3.2528,-3.2512,-3.249,-3.2485,-3.2488,-3.2501,-3.2511,-3.2514,-3.2578,-3.251,-3.2513,-3.2515,-3.2516,-3.2704,-3.2707,0,0,0,0,0,0,-3.2471,-3.2474,-3.2536,-3.2537,-3.2479,-3.2491,-3.2492,-3.251,-3.2511,-3.2509,-3.249,-3.2485,-3.2507,-3.251,-3.2514,-3.2604,-3.2514,-3.2517,-3.2519,-3.2701,-3.2705,-3.2708,0,0,0,0,0,0,-3.2469,-3.2477,-3.2535,-3.2504,-3.251,-3.2495,-3.2516,-3.2512,-3.2522,-3.2512,-3.2508,-3.2504,-3.2505,-3.251,-3.2561,-3.2604,-3.2518,-3.2521,-3.2698,-3.2702,-3.2707,-3.2784,0,0,0,0,0,0,-3.2467,-3.2477,-3.2506,-3.2505,-3.2512,-3.2582,-3.2518,-3.2514,-3.2528,-3.2521,-3.2524,-3.2521,-3.2503,-3.2557,-3.2565,-3.2607,-3.2524,-3.2694,-3.27,-3.2705,-3.2778,-3.2791,-3.2802,0,0,0,0,0,-3.2464,-3.2526,-3.2507,-3.2515,-3.2548,-3.2585,-3.2588,-3.2566,-3.2532,-3.256,-3.2554,-3.2521,-3.2598,-3.2563,-3.2571,-3.2615,-3.2691,-3.2698,-3.2705,-3.2772,-3.2788,-3.2801,0,0,0,0,0,0,-3.2532,-3.2526,-3.2505,-3.2568,-3.2578,-3.2574,-3.2609,-3.2584,-3.2603,-3.2595,-3.2567,-3.2568,-3.2625,-3.2624,-3.2586,-3.2689,-3.2638,-3.2647,-3.2687,-3.2702,-3.2714,-3.2713,-3.2526,0,0,0,0,0,-3.2554,-3.2585,-3.2578,-3.2634,-3.264,-3.2624,-3.2639,-3.2622,-3.263,-3.2633,-3.263,-3.264,-3.2666,-3.2684,-3.2707,-3.2777,-3.2777,-3.2811,-3.2823,-3.2833,-3.2841,-3.288,-3.2895,-3.2731,-3.2731,-3.2731,0,0,-3.26,-3.2601,-3.2622,-3.2648,-3.2653,-3.2686,-3.2628,-3.2664,-3.2689,-3.2639,-3.2688,-3.2686,-3.2694,-3.2756,-3.2783,-3.2758,-3.2887,-3.2842,-3.285,-3.2853,-3.2888,-3.2904,-3.2918,-3.2735,-3.2735,-3.2734,0,0,-3.2702,-3.2705,-3.2753,-3.276,-3.2768,-3.2757,-3.2769,-3.277,-3.2767,-3.2816,-3.2779,-3.2807,-3.2852,-3.286,-3.287,-3.2976,-3.2947,-3.2984,-3.3047,-3.3085,-3.3098,-3.3109,-3.3148,-3.3162,-3.2992,-3.2992,-3.2992,0,-3.2758,-3.2806,-3.2781,-3.2821,-3.2834,-3.2791,-3.284,-3.2847,-3.2863,-3.2873,-3.2844,-3.2901,-3.2903,-3.2966,-3.2992,-3.3001,-3.3014,-3.2984,-3.3098,-3.3109,-3.312,-3.3156,-3.3171,-3.2997,-3.2996,-3.2996,-3.2995,0,-3.2876,-3.291,-3.2948,-3.2965,-3.2982,-3.3026,-3.3008,-3.3028,-3.3009,-3.3001,-3.3052,-3.3053,-3.3077,-3.309,-3.3071,-3.3151,-3.3135,-3.3103,-3.3052,-3.314,-3.3174,-3.3188,-3.3003,-3.3002,-3.3,-3.2999,0,0,-3.302,-3.3024,-3.3038,-3.3046,-3.3052,-3.3078,-3.312,-3.3144,-3.3162,-3.3174,-3.321,-3.3249,-3.322,-3.3231,-3.3213,-3.3246,-3.3331,-3.3209,-3.3209,-3.3233,-3.342,-3.3445,-3.3462,-3.3311,-3.3314,-3.3316,-3.342,0,-3.3121,-3.3194,-3.3173,-3.3246,-3.3278,-3.3237,-3.3274,-3.3282,-3.3276,-3.3302,-3.3295,-3.3324,-3.3282,-3.3289,-3.332,-3.3314,-3.3368,-3.3306,-3.3344,-3.3346,-3.3345,-3.348,-3.3506,-3.3604,-3.3433,-3.3435,-3.3437,0,-3.3248,-3.3266,-3.3343,-3.3345,-3.3358,-3.3391,-3.3412,-3.3436,-3.3445,-3.3438,-3.3452,-3.3427,-3.3469,-3.3418,-3.3475,-3.3434,-3.3448,-3.3448,-3.3451,-3.3454,-3.3398,-3.3488,-3.3635,-3.365,-3.3457,-3.3455,-3.3454,0,-3.3347,-3.3391,-3.3443,-3.345,-3.3454,-3.3479,-3.3481,-3.3487,-3.3503,-3.3521,-3.3531,-3.3553,-3.3565,-3.3583,-3.3565,-3.3529,-3.3626,-3.3573,-3.3623,-3.3623,-3.3646,-3.3645,-3.3798,-3.3653,-3.3653,-3.3653,-3.3652,0,-3.3462,-3.3511,-3.3488,-3.352,-3.3573,-3.3549,-3.3602,-3.36,-3.3606,-3.3637,-3.3603,-3.3633,-3.3607,-3.3634,-3.3621,-3.3671,-3.3677,-3.3673,-3.3669,-3.3677,-3.3678,-3.3687,-3.368,-3.3657,-3.3656,-3.3655,-3.3654,0,-3.3583,-3.3569,-3.3623,-3.3622,-3.3623,-3.3663,-3.3662,-3.3692,-3.3684,-3.3723,-3.3731,-3.3718,-3.3749,-3.3733,-3.3764,-3.3755,-3.3821,-3.3807,-3.3819,-3.3816,-3.3867,-3.3863,-3.4032,-3.4054,-3.3894,-3.3896,-3.3897,0,-3.3658,-3.3695,-3.3698,-3.3717,-3.3722,-3.3752,-3.3768,-3.3746,-3.3764,-3.3777,-3.3805,-3.3833,-3.3855,-3.3906,-3.3899,-3.3924,-3.3911,-3.3969,-3.3914,-3.3921,-3.3913,-3.3912,-3.3916,-3.398,-3.3982,-3.3983,-3.3985,0,-3.3793,-3.3784,-3.3809,-3.3832,-3.3853,-3.3869,-3.3883,-3.39,-3.3878,-3.39,-3.3931,-3.3948,-3.3981,-3.4009,-3.4031,-3.4033,-3.4006,-3.4002,-3.4015,-3.4024,-3.4029,-3.4028,-3.385,-3.3998,-3.3997,-3.3996,-3.3995,-3.3994,-3.3894,-3.3925,-3.3933,-3.3962,-3.397,-3.3984,-3.4012,-3.4008,-3.4034,-3.4059,-3.4044,-3.4081,-3.4089,-3.4115,-3.4121,-3.415,-3.4127,-3.4146,-3.4151,-3.4156,-3.4163,-3.4024,-3.4154,-3.4153,-3.4153,-3.4153,-3.4152,0,-3.4028,-3.4031,-3.4058,-3.4079,-3.4102,-3.4074,-3.4088,-3.411,-3.4143,-3.4153,-3.4175,-3.4212,-3.4239,-3.4235,-3.4261,-3.4285,-3.4273,-3.4292,-3.4291,-3.4292,-3.4182,-3.4169,-3.4302,-3.4302,-3.4302,-3.4302,-3.4301,-3.4301,-3.4101,-3.4153,-3.4145,-3.4201,-3.4203,-3.424,-3.4251,-3.4264,-3.4272,-3.4315,-3.4338,-3.4335,-3.434,-3.4365,-3.439,-3.4388,-3.4399,-3.4424,-3.4417,-3.4315,-3.43,-3.4286,-3.4273,-3.4426,-3.4426,-3.4525,-3.4526,-3.4527]},{"header":{"parameterUnit":"m.s-1","parameterCategory":1,"la1":30.2991,"la2":30.254,"lo1":-89.0895,"lo2":-89.0444,"dy":0.0017,"dx":0.0017,"nx":28,"ny":28,"refTime":"2023-11-02T03:00:00:Z","depth":0,"parameterNumber":3,"parameterNumberName":"V-component_of_WINDS"},"data":[0,0,0,0,0,0,0,0,0,0,0,0,0,0,0,0,0,0,0,0,0,0,0,0,0,0,0,0,0,0,0,0,0,0,0,0,0,0,0,0,0,0,0,0,0,0,0,0,0,0,0,0,0,0,0,0,0,0,-2.2598,-2.2598,0,-2.2588,-2.2588,-2.2588,-2.2555,-2.2554,-2.2553,-2.2553,-2.2543,-2.2543,-2.2544,0,0,0,0,0,0,0,0,0,0,0,0,0,-2.2589,-2.259,-2.2598,-2.2598,-2.2598,-2.2588,-2.2588,-2.2588,-2.2555,-2.2554,-2.2553,-2.2552,-2.2543,-2.2543,-2.2544,0,0,0,0,0,0,0,0,0,0,0,0,0,-2.2588,-2.259,-2.2598,-2.258,-2.2578,-2.2588,-2.2588,-2.2588,-2.2555,-2.2554,-2.2553,-2.2552,-2.2543,-2.2543,-2.2544,-2.257,0,0,-2.2546,-2.2546,0,0,0,0,0,0,0,0,-2.2588,-2.2588,-2.2583,-2.2581,-2.2579,-2.2571,-2.2581,-2.2582,-2.2555,-2.2564,-2.2553,-2.2551,-2.2553,-2.2553,-2.2554,-2.2569,-2.2569,-2.2546,-2.2546,-2.2547,-2.2547,0,0,0,0,0,0,0,-2.2588,-2.2588,-2.2594,-2.2583,-2.2581,-2.2573,-2.2571,-2.2581,-2.2565,-2.2563,-2.2561,-2.256,-2.2552,-2.2553,-2.2553,-2.2569,-2.2546,-2.2547,-2.2547,-2.2547,-2.2607,-2.2608,0,0,0,0,0,0,-2.2591,-2.2589,-2.2594,-2.2594,-2.2581,-2.2574,-2.2572,-2.2575,-2.2565,-2.2562,-2.2561,-2.2558,-2.2553,-2.2552,-2.2553,-2.2584,-2.2547,-2.2547,-2.2548,-2.2605,-2.2607,-2.2608,0,0,0,0,0,0,-2.259,-2.2591,-2.2595,-2.259,-2.259,-2.2575,-2.2579,-2.2576,-2.2576,-2.2563,-2.256,-2.2565,-2.2552,-2.2552,-2.2566,-2.2583,-2.2548,-2.2548,-2.2604,-2.2606,-2.2608,-2.2645,0,0,0,0,0,0,-2.259,-2.2591,-2.2601,-2.2591,-2.2591,-2.2608,-2.258,-2.2576,-2.2577,-2.2574,-2.2566,-2.2564,-2.2551,-2.2565,-2.2567,-2.2583,-2.2549,-2.2603,-2.2605,-2.2607,-2.2642,-2.2648,-2.2653,0,0,0,0,0,-2.259,-2.2612,-2.2602,-2.2603,-2.2602,-2.2609,-2.2609,-2.2594,-2.2579,-2.2589,-2.258,-2.2564,-2.258,-2.2567,-2.2568,-2.2585,-2.2601,-2.2604,-2.2607,-2.264,-2.2647,-2.2652,0,0,0,0,0,0,-2.2625,-2.261,-2.2599,-2.2618,-2.2615,-2.2604,-2.2615,-2.2601,-2.2603,-2.26,-2.2581,-2.2579,-2.2597,-2.2592,-2.2577,-2.261,-2.2588,-2.2591,-2.2613,-2.2619,-2.2624,-2.2626,-2.2549,0,0,0,0,0,-2.2634,-2.2641,-2.2628,-2.2646,-2.2645,-2.2631,-2.2633,-2.2622,-2.2618,-2.2617,-2.2609,-2.2606,-2.2611,-2.2615,-2.2618,-2.2641,-2.2639,-2.2653,-2.2658,-2.2662,-2.2666,-2.2679,-2.2685,-2.2617,-2.2617,-2.2617,0,0,-2.2655,-2.2648,-2.2653,-2.2653,-2.2649,-2.2657,-2.263,-2.2639,-2.2645,-2.2618,-2.2632,-2.2626,-2.2622,-2.2641,-2.2649,-2.2637,-2.2684,-2.2666,-2.2669,-2.267,-2.2682,-2.2689,-2.2694,-2.2619,-2.2619,-2.2618,0,0,-2.2696,-2.2691,-2.2706,-2.2703,-2.2698,-2.2688,-2.2692,-2.2682,-2.2678,-2.2691,-2.2671,-2.2678,-2.2686,-2.2684,-2.2684,-2.2725,-2.271,-2.2726,-2.2754,-2.2767,-2.2772,-2.2777,-2.2793,-2.2799,-2.2729,-2.273,-2.273,0,-2.2722,-2.2733,-2.2716,-2.2726,-2.2727,-2.2703,-2.2719,-2.2716,-2.2713,-2.2714,-2.2701,-2.2712,-2.2707,-2.2726,-2.2736,-2.2736,-2.274,-2.2728,-2.2773,-2.2777,-2.2782,-2.2797,-2.2803,-2.2732,-2.2731,-2.2731,-2.2731,0,-2.2766,-2.2774,-2.2787,-2.2784,-2.2786,-2.2799,-2.2784,-2.2788,-2.2777,-2.2768,-2.2782,-2.2776,-2.2778,-2.2781,-2.2769,-2.2799,-2.2792,-2.2776,-2.2754,-2.2791,-2.2804,-2.281,-2.2735,-2.2734,-2.2733,-2.2733,0,0,-2.283,-2.2818,-2.2823,-2.2822,-2.2814,-2.282,-2.2832,-2.2834,-2.2839,-2.2837,-2.2847,-2.2855,-2.284,-2.284,-2.2828,-2.2839,-2.2874,-2.2822,-2.2822,-2.2833,-2.2907,-2.292,-2.2927,-2.2863,-2.2864,-2.2865,-2.2908,0,-2.2871,-2.2891,-2.2876,-2.2899,-2.2906,-2.2883,-2.2894,-2.2891,-2.2883,-2.2888,-2.288,-2.2886,-2.2866,-2.2866,-2.2876,-2.2868,-2.2889,-2.2864,-2.2874,-2.2875,-2.2878,-2.2934,-2.2948,-2.2988,-2.2913,-2.2914,-2.2914,0,-2.2921,-2.2922,-2.2946,-2.2938,-2.294,-2.295,-2.2951,-2.2956,-2.2952,-2.2946,-2.2946,-2.2931,-2.2943,-2.292,-2.2937,-2.292,-2.2923,-2.292,-2.2921,-2.2923,-2.2898,-2.2939,-2.3001,-2.3008,-2.2923,-2.2922,-2.2921,0,-2.2968,-2.2974,-2.299,-2.2989,-2.298,-2.2987,-2.2984,-2.2978,-2.2981,-2.2981,-2.2983,-2.2985,-2.2987,-2.2989,-2.2975,-2.2959,-2.2994,-2.2969,-2.299,-2.299,-2.3,-2.3,-2.3065,-2.2999,-2.2999,-2.2998,-2.2998,0,-2.3016,-2.3032,-2.3011,-2.3021,-2.3038,-2.302,-2.3038,-2.3031,-2.3027,-2.3035,-2.3015,-2.3023,-2.3004,-2.301,-2.2999,-2.3016,-2.3016,-2.3012,-2.3009,-2.3015,-2.3016,-2.3018,-2.3015,-2.3,-2.3,-2.2999,-2.2999,0,-2.3071,-2.3058,-2.3073,-2.3063,-2.306,-2.3074,-2.3065,-2.3074,-2.3064,-2.3075,-2.3077,-2.3063,-2.3069,-2.3055,-2.306,-2.3052,-2.3076,-2.3068,-2.3077,-2.3076,-2.3098,-2.3097,-2.3168,-2.3177,-2.3104,-2.3104,-2.3105,0,-2.3104,-2.3116,-2.3106,-2.311,-2.3108,-2.3115,-2.3117,-2.31,-2.3103,-2.31,-2.3109,-2.3114,-2.3117,-2.3129,-2.3119,-2.3123,-2.3116,-2.314,-2.3116,-2.3122,-2.3118,-2.3118,-2.312,-2.3146,-2.3147,-2.3148,-2.3148,0,-2.3163,-2.3156,-2.316,-2.3163,-2.3166,-2.3167,-2.3166,-2.3171,-2.3152,-2.3157,-2.3164,-2.3166,-2.3171,-2.3177,-2.3178,-2.3174,-2.3159,-2.3156,-2.3161,-2.3168,-2.3174,-2.3173,-2.3093,-2.3155,-2.3154,-2.3153,-2.3153,-2.3153,-2.321,-2.3219,-2.3215,-2.322,-2.3218,-2.3218,-2.3226,-2.3218,-2.3223,-2.3226,-2.3214,-2.3224,-2.322,-2.322,-2.3218,-2.3225,-2.3214,-2.3222,-2.3224,-2.3226,-2.3231,-2.3171,-2.3225,-2.3225,-2.3225,-2.3225,-2.3225,0,-2.327,-2.3265,-2.3271,-2.3271,-2.3275,-2.3259,-2.3258,-2.3263,-2.3271,-2.3269,-2.3272,-2.328,-2.3286,-2.3276,-2.328,-2.3288,-2.3281,-2.329,-2.329,-2.3289,-2.3239,-2.3235,-2.3295,-2.3295,-2.3295,-2.3295,-2.3295,-2.3295,-2.3302,-2.3318,-2.331,-2.3325,-2.3321,-2.333,-2.3331,-2.3331,-2.3329,-2.3338,-2.3343,-2.3336,-2.3331,-2.3335,-2.3339,-2.3336,-2.3339,-2.3351,-2.3346,-2.33,-2.3293,-2.3286,-2.3282,-2.3351,-2.3351,-2.3395,-2.3396,-2.3396]}]]